Current weather by "City, St" or "zip code"  
 

Current Conditions: Joliet Regional Airport, IL

Fair


58.0 F

Last Updated on Oct 31 2020, 1:35 pm CDT
Humidity: 45%
Wind Speed: S 16.1 G 21.9 mph
Barometer 30.11 in
Dewpoint: 36.1 F
Visibility: 10.00 mi
Precip: --
Heat Index: NA
Wind Chill: 55 F
Current conditions at:

Joliet Regional Airport, IL (KJOT)

Lat: 41.51755 Lon: 88.17903

Local Radar Image active severe weather and emergency alerts image image weather storm and storm spotter reports image weather observation monitoring service image
Local
Radar
Active
Alerts
Storm Reports Obs
Monitoring

Sign-up For Email & Text Message Weather Alert Notification Services



Advertise Here

Observation History for Joliet Regional Airport, IL


Time Wind
(mph)
Vis
(mi)
Weather Precip (in) Temperature (F) Relative
Humidity
Wind
Chill
(F)
Heat
Index
(F)
Pressure
Air Dwpt altimeter
(in)
sea level
(mb)
Rmks
1:35 pm CDT S 16.1 G 21.9 10.00 Fair -- 58.0 36.1 45% 55 NA 30.11 M
12:55 pm CDT S 16.1 G 26.5 10.00 Fair -- 56.0 35.8 46% 52 NA 30.15 M
11:55 am CDT S 17.3 G 23.0 10.00 Fair -- 53.0 36.1 53% 48 NA 30.21 M
10:55 am CDT S 11.5 G 17.3 10.00 Fair -- 49.0 34.3 57% 44 NA 30.23 M
9:55 am CDT S 9.2 10.00 Fair -- 43.0 32.4 66% 38 NA 30.26 M
8:55 am CDT S 6.9 10.00 Fair -- 37.0 30.4 77% 32 NA 30.29 M
7:55 am CDT N 0.0 10.00 Fair -- 32.0 28.2 86% NA NA 30.29 M
6:55 am CDT N 0.0 10.00 Fair -- 31.0 27.1 84% NA NA 30.31 M
6:35 am CDT N 0.0 10.00 Fair -- 31.0 26.8 84% NA NA 30.31 M
5:55 am CDT SE 4.6 10.00 Fair -- 32.0 26.6 82% 27 NA 30.31 M
4:55 am CDT N 0.0 10.00 Fair -- 32.0 26.1 79% NA NA 30.32 M
3:55 am CDT SE 3.5 10.00 Partly Cloudy -- 32.0 26.1 78% NA NA 30.33 M
2:55 am CDT N 0.0 10.00 Fair -- 32.0 25.7 78% NA NA 30.34 M
1:55 am CDT N 0.0 10.00 Fair -- 31.0 25.9 80% NA NA 30.35 M
12:55 am CDT N 0.0 10.00 Fair -- 31.0 27.0 86% NA NA 30.36 M
12:35 am CDT N 0.0 10.00 Fair -- 28.0 25.7 91% NA NA 30.36 M
11:55 pm CDT N 0.0 10.00 Fair -- 30.0 27.7 90% NA NA 30.36 M
10:55 pm CDT N 0.0 10.00 Fair -- 32.0 26.2 80% NA NA 30.35 M
9:55 pm CDT N 0.0 10.00 Fair -- 33.0 27.0 78% NA NA 30.35 M
8:55 pm CDT E 3.5 10.00 Fair -- 35.0 26.6 72% NA NA 30.35 M
7:55 pm CDT E 5.8 10.00 Fair -- 36.0 27.1 70% 31 NA 30.34 M
7:35 pm CDT E 5.8 10.00 Fair -- 36.0 26.6 69% 31 NA 30.34 M
6:55 pm CDT E 4.6 10.00 Fair -- 32.0 25.5 76% 27 NA 30.33 M
5:55 pm CDT N 0.0 10.00 Fair -- 42.0 23.5 49% NA NA 30.31 M

Regional Weather Observation


Aurora Municipal Airport, IL (KARR)

Fair
56.0 F

Lewis University Airport, IL (KLOT)

Fair
56.0 F

De Kalb Taylor Municipal Airport, IL (KDKB)

Fair and Breezy
55.0 F

Joliet Regional Airport, IL (KJOT)

Fair
58.0 F

Morris Muni-James R Washburn Field Airport, IL (KC09)

Fair
58.0 F

Chicago, Chicago-OHare International Airport, IL (KORD)

Fair
56.0 F